Temp
13 13 13 13 13 13 13 13 13 13 13 13 12 12 12 12 12 11 12 12 12 12 12 12 12 12 12 12 12 12 12 12 12 12 12 12 12 11 11 11 10 10 9 9 8 8 7 7 7 6 6 6 5 5 5 5 5 5 4 4 4 4 4 4 4 4 4 4 4
13 13 13 13 13 13 13 13 13 13 13 13 12 12 12 12 12 12 12 12 12 12 13 13 13 12 12 12 12 12 12 12 12 12 12 12 12 11 11 11 10 10 9 9 8 8 7 7 6 6 6 5 5 5 5 4 4 4 4 4 4 4 4 4 4 4 4 4 4
13 13 13 13 13 13 13 13 13 12 12 12 12 12 12 12 12 12 12 12 13 13 13 13 12 12 12 12 12 12 12 12 12 12 12 12 11 11 11 10 10 10 9 9 8 8 7 7 6 6 5 5 5 5 5 4 4 4 4 4 4 4 4 4 4 4 4 4 4
12 12 13 13 13 13 13 13 13 12 12 12 12 12 12 12 12 12 13 13 13 13 13 12 12 12 11 12 12 12 12 12 12 12 12 12 11 11 11 10 10 9 9 8 8 7 7 6 6 6 5 5 5 5 5 4 4 4 4 4 4 4 4 3 3 3 3 3 3
12 12 13 13 13 13 13 13 13 12 12 12 12 12 11 12 12 12 13 13 12 12 12 12 12 12 11 12 12 12 12 12 12 12 12 11 11 11 10 10 9 9 9 8 8 7 7 6 6 5 5 5 5 5 4 4 4 4 4 4 3 3 3 3 3 3 3 3 3
12 12 12 13 13 13 13 13 13 12 12 12 12 12 11 12 12 12 12 12 12 12 12 12 12 12 12 12 12 12 12 12 12 12 11 11 11 10 10 10 9 9 8 8 8 7 7 6 6 5 5 5 4 4 4 4 4 4 4 3 3 3 3 3 3 3 3 3 3
12 12 13 13 13 13 13 13 12 12 12 12 12 12 12 12 12 12 12 12 12 12 12 11 11 12 12 12 12 12 12 12 12 12 11 11 11 10 10 9 9 9 8 8 7 7 6 6 5 5 5 4 4 4 4 4 4 4 3 3 3 3 3 3 3 3 3 2 2
12 13 13 13 13 13 13 13 12 11 11 11 12 12 12 12 12 12 12 12 12 12 12 11 11 12 12 12 12 12 12 12 12 11 11 11 10 10 10 9 9 8 8 7 7 6 6 5 5 5 4 4 4 4 4 4 4 3 3 3 3 3 3 3 3 2 2 2 2
12 13 13 13 13 13 13 12 12 11 11 11 12 12 12 13 13 12 12 12 12 12 12 12 12 12 12 12 12 12 12 12 11 11 11 11 10 10 9 9 8 8 8 7 7 6 6 5 5 5 4 4 4 4 4 4 3 3 3 3 3 3 3 2 2 2 2 2 2
12 13 13 13 13 13 12 12 12 11 11 12 12 12 12 12 12 12 12 12 12 12 12 12 12 12 12 12 12 12 12 11 11 11 11 10 10 9 9 9 8 8 7 7 6 6 5 5 5 4 4 4 4 4 4 3 3 3 3 3 3 3 3 2 2 2 2 2 2
12 13 13 13 13 12 12 12 11 11 11 12 12 12 12 12 12 12 12 12 12 12 12 12 12 12 12 12 12 12 12 11 11 11 10 10 10 9 9 8 8 7 7 6 6 5 5 5 5 4 4 4 4 4 3 3 3 3 3 3 3 3 2 2 2 2 2 2 2
12 13 13 13 13 12 12 11 11 11 11 11 12 12 12 12 12 12 12 12 12 12 12 12 12 12 12 12 12 12 11 11 11 10 10 10 9 9 8 8 7 7 6 6 6 5 5 5 4 4 4 4 3 3 3 3 3 3 3 3 3 3 2 2 2 2 2 2 2
12 12 12 12 12 12 11 11 11 10 11 11 11 11 11 11 11 12 12 12 12 12 12 12 12 12 12 12 12 11 11 11 11 10 10 9 9 9 8 8 7 7 6 6 6 5 5 5 4 4 4 3 3 3 3 3 3 3 3 3 3 2 2 2 2 2 2 1 1
12 12 12 12 12 11 11 11 10 10 10 11 11 11 11 11 11 11 11 11 12 12 12 12 12 12 12 12 11 11 11 11 10 10 9 9 9 8 8 7 7 6 6 6 5 5 5 5 4 4 4 4 3 3 3 3 3 3 3 3 3 3 2 2 2 2 2 1 1
11 11 11 11 11 11 10 10 10 10 10 11 11 11 11 11 11 11 11 11 11 12 12 12 12 12 12 11 11 11 11 10 10 10 9 9 8 8 8 7 7 6 6 5 5 5 5 5 4 4 4 4 3 3 3 3 3 3 3 3 3 3 2 2 2 2 2 1 1
10 10 10 10 10 10 10 10 10 10 10 10 10 11 11 11 11 11 11 11 11 12 12 12 12 11 11 11 11 11 10 10 10 9 9 8 8 8 7 7 6 6 6 5 5 5 5 4 4 4 4 4 3 3 3 3 3 3 3 3 3 3 3 2 2 2 2 2 1
10 10 10 10 10 10 10 10 10 10 10 10 10 11 11 11 11 11 11 11 11 12 12 12 11 11 11 11 11 10 10 10 9 9 9 8 8 7 7 6 6 6 5 5 5 5 4 4 4 4 4 4 3 3 3 3 3 3 3 3 3 3 3 2 2 2 2 2 1
9 9 9 10 10 10 10 10 10 10 10 10 11 11 11 11 11 11 11 11 11 12 12 11 11 11 11 11 10 10 10 9 9 9 8 8 7 7 7 6 6 6 5 5 5 5 4 4 4 4 4 4 3 3 3 3 3 3 3 3 3 3 3 3 2 2 2 2 1
9 9 9 9 9 9 10 10 10 10 10 10 11 11 11 11 11 11 11 11 11 11 11 11 11 11 11 10 10 10 10 9 9 8 8 7 7 7 6 6 6 6 5 5 5 5 4 4 4 4 4 4 3 3 3 3 3 3 3 3 3 3 3 3 2 2 2 2 2
8 9 9 9 9 9 9 9 10 10 10 11 11 11 11 11 11 12 12 11 11 11 11 11 11 11 10 10 10 9 9 9 8 8 7 7 7 6 6 6 6 5 5 5 5 5 4 4 4 4 4 3 3 3 3 3 3 3 3 3 3 3 3 3 2 2 2 2 2
8 9 9 9 9 9 9 9 10 10 10 11 11 11 11 11 11 11 11 11 11 11 11 11 11 10 10 10 9 9 9 8 8 8 7 7 7 6 6 6 6 5 5 5 5 5 4 4 4 4 4 3 3 3 3 3 3 3 3 3 3 3 3 2 2 2 2 2 1
8 9 9 9 9 9 9 9 9 10 10 11 11 11 11 11 11 11 11 11 11 11 11 10 10 10 10 9 9 9 8 8 8 7 7 7 6 6 6 6 6 5 5 5 5 5 4 4 4 4 4 3 3 3 3 3 3 3 2 2 2 2 2 2 2 2 1 1 1
8 9 9 9 9 9 9 9 9 10 10 10 11 11 11 11 11 11 11 11 11 11 10 10 10 10 9 9 9 8 8 7 7 7 7 6 6 6 6 6 5 5 5 5 5 5 4 4 4 4 4 3 3 3 3 3 3 2 2 2 2 2 2 2 2 1 1 1 1
8 8 8 8 8 8 8 9 9 9 10 10 10 11 11 11 10 10 10 10 10 10 10 10 9 9 9 8 8 8 7 7 7 7 6 6 6 6 6 5 5 5 5 5 5 5 4 4 4 4 4 4 3 3 3 3 3 3 3 3 2 2 2 2 2 2 2 2 1
8 8 8 8 8 8 8 8 8 9 9 10 10 10 10 10 10 10 10 10 10 10 10 9 9 9 8 8 8 7 7 7 7 6 6 6 6 6 5 5 5 5 5 5 5 5 4 4 4 4 4 3 3 3 3 3 3 3 3 2 2 2 2 2 2 2 2 2 2
8 8 7 7 7 7 7 8 8 9 9 9 10 10 10 10 10 10 10 10 10 10 9 9 9 8 8 8 7 7 7 7 6 6 6 6 6 5 5 5 5 5 5 5 5 5 5 4 4 4 3 3 2 2 2 2 2 2 2 2 2 1 2 2 2 2 2 2 2
7 7 7 7 7 7 7 7 8 8 8 9 9 9 9 10 10 10 10 10 10 9 9 9 8 8 8 7 7 7 6 6 6 6 6 6 6 5 5 5 5 5 5 5 5 5 5 4 4 4 3 3 2 2 2 2 2 2 2 1 1 1 2 2 2 2 2 2 2
7 7 7 6 6 7 7 7 7 8 8 8 9 9 9 10 10 10 10 10 9 9 9 8 8 8 7 7 7 7 6 6 6 6 6 6 5 5 5 5 5 5 5 5 5 5 5 4 4 4 3 3 3 2 2 2 2 2 2 2 2 2 2 2 2 2 2 2 2
7 6 6 6 6 6 6 6 7 7 8 8 9 9 9 9 10 10 9 9 9 9 8 8 8 7 7 7 7 6 6 6 6 6 6 5 5 5 5 5 5 5 5 5 5 5 5 5 4 4 4 3 3 3 2 2 2 2 2 2 2 2 2 2 2 2 2 2 2
6 6 6 6 6 6 6 6 7 7 8 8 8 9 9 9 9 9 9 9 9 8 8 8 8 7 7 7 7 6 6 6 6 6 6 5 5 5 5 5 5 6 6 6 5 5 5 5 4 4 4 3 3 3 2 2 2 3 3 3 3 3 3 3 3 2 2 2 2
6 6 6 6 6 6 6 6 7 7 7 8 8 9 9 9 9 9 9 9 9 8 8 8 7 7 7 7 6 6 6 6 6 6 6 6 6 6 6 6 6 6 6 6 6 5 5 5 5 4 4 4 3 3 3 2 2 2 3 3 3 3 3 3 3 3 2 2 2
6 6 6 6 6 6 6 6 7 7 7 8 8 9 9 9 9 9 9 9 8 8 8 7 7 7 7 6 6 6 6 6 6 6 6 6 6 6 6 6 6 6 6 6 6 6 5 5 5 4 4 3 3 3 3 2 2 2 2 3 3 3 3 3 3 2 2 2 2
6 6 6 6 6 6 6 6 6 7 7 8 8 9 9 9 9 9 9 8 8 8 7 7 7 7 6 6 6 6 6 6 6 6 6 6 6 6 6 6 6 6 6 6 6 6 5 5 5 4 4 3 3 3 3 3 3 3 3 3 3 3 2 2 2 2 2 2 2
6 6 6 6 6 6 6 6 6 7 7 8 8 9 9 9 9 9 8 8 8 8 7 7 7 6 6 6 6 6 6 6 6 6 6 6 6 6 6 6 6 6 6 6 6 6 5 5 5 4 4 3 3 3 3 3 3 3 3 3 3 3 3 2 2 2 2 2 2
5 6 6 6 6 6 6 6 6 7 7 7 8 8 9 9 9 8 8 8 8 7 7 7 7 6 6 6 6 6 6 6 6 6 6 6 6 5 5 5 6 6 6 6 6 6 5 5 5 4 4 3 3 3 3 3 3 3 3 3 3 3 3 2 2 2 2 2 1
5 6 6 6 6 6 6 6 6 7 7 7 8 8 9 9 8 8 8 8 7 7 7 7 6 6 6 6 6 6 6 6 6 6 6 6 5 5 5 5 5 6 6 6 6 6 5 5 5 4 4 3 3 3 3 3 3 3 3 3 3 3 3 2 2 2 2 1 1
5 6 6 6 6 6 6 6 6 7 7 8 8 8 9 9 8 8 8 7 7 7 6 6 6 6 6 6 6 6 6 6 6 6 6 6 5 5 5 5 5 5 5 5 5 5 5 5 4 4 3 3 2 2 2 3 3 3 3 3 3 3 2 2 2 2 1 1 1
5 6 6 6 6 6 6 6 7 7 7 8 8 8 9 8 8 8 7 7 7 6 6 6 6 6 6 6 6 6 6 6 6 6 6 5 5 5 5 5 5 5 5 5 5 5 4 4 4 4 3 3 2 2 2 3 3 3 3 3 3 2 2 2 2 2 1 1 1
5 5 6 6 6 6 6 7 7 7 8 8 8 8 8 8 7 7 7 7 7 6 6 6 6 6 6 6 6 6 6 6 6 6 5 5 5 5 5 4 4 5 5 4 4 4 4 4 4 3 3 2 2 2 2 3 3 3 3 3 3 3 2 2 2 2 2 1 1
5 5 6 6 6 6 6 7 7 8 8 8 8 8 8 7 7 7 7 7 7 6 6 6 6 6 6 6 5 5 5 5 5 5 5 5 5 5 4 4 4 4 4 4 4 4 4 3 3 3 3 2 2 2 2 2 3 3 3 3 3 3 3 2 2 2 2 1 1
5 5 6 6 6 6 7 7 7 8 8 8 8 8 7 7 7 7 7 7 6 6 6 6 6 6 6 5 5 5 5 5 5 5 5 4 4 4 4 4 3 3 4 4 4 3 3 3 3 3 2 2 2 2 2 2 2 2 2 2 2 2 2 2 2 2 2 2 1
Height
797 798 799 800 802 803 804 805 806 807 808 809 810 811 812 814 815 816 817 818 819 820 821 823 824 824 825 826 827 828 828 829 829 830 831 831 832 832 832 832 832 833 833 833 833 833 833 833 833 833 833 833 833 833 833 832 832 832 832 832 832 832 831 831 831 831 831 830 830
796 797 798 799 801 802 803 804 805 806 807 808 809 810 811 812 814 814 816 817 818 819 820 821 823 824 825 825 826 827 827 828 829 829 830 830 830 831 831 831 831 831 832 832 832 832 832 832 832 832 832 832 832 832 832 831 831 831 831 831 831 831 830 830 830 830 829 829 829
795 796 797 798 799 800 802 803 804 805 806 807 808 809 810 811 812 814 815 816 817 818 819 821 822 823 824 824 825 826 826 827 828 828 829 829 829 829 830 830 830 830 830 830 830 830 831 831 831 831 831 831 831 831 831 830 830 830 830 830 830 829 829 829 829 829 828 828 828
794 795 796 797 798 799 800 802 803 804 805 806 807 809 809 810 811 813 814 815 816 818 819 820 821 822 823 824 824 825 825 826 827 827 828 828 828 828 829 829 829 829 829 829 829 829 829 830 830 830 830 830 830 830 830 829 829 829 829 829 829 828 828 828 828 827 827 826 826
793 794 795 796 797 799 800 801 802 803 804 805 806 807 809 809 810 811 813 814 815 817 818 819 820 821 822 823 823 824 824 825 825 826 826 827 827 827 827 828 828 828 828 828 828 828 828 829 829 829 829 829 829 829 829 829 828 828 828 827 827 827 827 826 826 826 825 825 825
792 793 794 796 797 799 799 800 801 802 803 804 805 806 807 808 809 810 812 813 814 816 817 818 819 820 821 821 822 823 823 824 824 825 825 825 826 826 826 826 826 826 826 827 827 827 827 827 827 827 827 828 827 827 827 827 827 827 827 826 826 826 825 825 825 824 824 824 824
791 793 794 795 797 798 799 799 800 801 802 803 804 805 806 807 808 809 811 812 813 815 816 817 818 819 820 820 821 821 822 823 823 824 824 824 824 824 825 825 825 825 825 825 825 826 826 826 826 826 826 826 826 826 826 826 826 826 825 825 825 824 824 824 824 823 823 823 822
791 792 793 794 796 797 798 799 799 800 801 802 803 804 805 806 807 809 810 811 812 814 815 816 817 818 819 819 820 820 821 821 822 822 823 823 823 823 824 824 824 824 824 824 824 824 825 825 825 825 825 825 825 825 825 824 824 824 824 824 824 824 823 822 822 822 821 821 821
790 791 792 794 795 796 797 798 799 799 800 802 803 804 804 806 807 808 809 810 811 813 814 815 816 817 817 818 819 819 820 820 821 821 821 822 822 822 822 822 822 823 823 823 823 824 824 824 824 824 824 824 824 824 824 823 823 823 823 823 823 822 822 821 821 820 820 820 819
789 790 791 792 794 794 796 797 798 799 800 801 802 803 804 805 806 807 808 809 810 812 813 814 814 815 816 817 817 818 819 819 819 820 820 820 820 821 821 821 821 821 821 822 822 822 823 823 823 823 823 823 822 822 822 822 822 821 821 821 821 821 820 820 820 819 819 818 818
787 789 789 791 792 793 794 796 797 798 799 800 801 802 803 804 805 806 807 808 809 811 812 813 813 814 815 815 816 817 817 818 818 819 819 819 819 819 819 820 820 820 820 820 821 821 821 821 821 821 821 821 821 821 821 820 820 820 820 820 819 819 819 819 819 818 817 817 816
786 787 789 790 791 792 793 794 796 797 798 799 800 801 802 803 804 805 806 807 809 809 810 811 812 813 814 814 815 815 816 816 817 817 817 818 818 818 818 819 819 819 819 819 819 820 820 820 820 820 820 820 820 820 819 819 819 819 819 818 818 818 817 817 817 816 816 815 814
785 786 787 789 789 791 792 793 794 796 797 798 799 799 800 802 803 804 805 806 807 808 809 810 811 812 812 813 814 814 815 815 815 816 816 816 817 817 817 817 818 818 818 818 818 818 819 819 819 819 819 819 819 819 818 818 818 817 817 817 816 816 816 815 815 815 814 814 813
784 785 786 787 788 789 791 792 793 794 795 796 797 798 799 800 802 803 804 805 806 807 808 809 809 810 811 812 812 813 813 814 814 814 815 815 815 815 816 816 816 816 817 817 817 817 817 817 817 817 817 817 817 817 817 817 816 816 815 815 815 814 814 814 813 813 813 812 812
782 783 784 785 787 788 789 791 792 793 794 795 796 797 798 799 800 802 803 804 805 806 806 807 808 809 810 810 811 812 812 813 813 813 814 814 814 814 814 815 815 815 815 815 815 816 816 816 816 816 816 816 816 816 815 815 815 814 814 814 813 813 812 812 812 811 811 810 810
781 782 783 784 785 787 788 789 790 791 792 794 794 795 797 798 799 800 802 803 804 804 805 806 807 808 809 809 810 810 811 811 812 812 812 813 813 813 813 814 814 814 814 814 814 814 814 814 814 814 814 814 814 814 814 814 813 813 812 812 811 811 811 810 810 810 809 809 808
779 780 781 783 784 785 786 788 789 790 791 792 793 794 795 797 798 799 800 801 802 803 804 805 805 806 807 808 809 809 809 810 810 811 811 811 811 812 812 812 812 813 813 813 813 813 813 813 813 813 813 813 813 812 812 812 811 811 810 810 810 809 809 809 808 808 807 807 806
778 779 780 781 783 784 785 786 787 788 789 790 792 793 794 795 797 798 799 800 801 802 803 804 804 805 806 806 807 808 808 809 809 809 810 810 810 811 811 811 811 811 811 811 811 812 812 812 812 812 811 811 811 811 810 810 810 809 809 809 808 808 807 807 806 806 806 805 804
776 777 779 780 781 783 784 785 786 787 788 789 791 792 793 794 796 797 798 799 800 801 801 802 803 804 804 805 806 806 807 807 808 808 809 809 809 809 809 810 810 810 810 810 810 810 810 810 810 810 810 810 809 809 809 809 808 808 807 807 806 806 805 805 805 804 804 803 803
775 776 777 779 780 782 783 784 785 786 787 789 790 791 792 794 794 795 796 797 799 799 800 801 802 803 803 804 804 805 806 806 807 807 807 808 808 808 808 809 809 809 809 809 809 809 809 809 809 809 809 808 808 808 807 807 806 806 805 805 804 804 804 803 803 802 802 801 801
774 775 776 778 779 780 782 783 784 785 786 788 789 790 791 792 794 794 795 796 797 798 799 800 801 801 802 803 803 804 804 805 805 806 806 806 807 807 807 807 807 807 807 808 808 808 808 808 808 807 807 807 806 806 806 805 805 804 804 803 803 802 802 801 801 800 799 799 799
773 774 775 777 778 779 780 782 783 784 785 787 788 789 790 791 792 793 794 795 796 797 798 799 799 800 801 802 802 803 803 804 804 805 805 805 805 805 806 806 806 806 806 806 806 806 806 806 806 806 805 805 805 804 804 804 803 803 802 801 801 800 800 799 799 798 798 797 797
771 773 774 775 777 778 779 781 782 783 784 785 787 788 789 790 791 792 793 794 795 796 797 798 799 799 800 800 801 802 802 803 803 804 804 804 804 804 804 804 804 804 805 805 805 805 805 804 804 804 804 804 803 803 802 802 801 801 800 799 799 799 798 798 797 796 796 795 795
770 772 773 774 776 777 778 779 780 782 783 784 785 786 788 789 790 791 792 793 794 795 796 797 798 798 799 799 800 800 801 802 802 802 803 803 803 803 803 803 803 803 803 803 804 804 803 803 803 803 802 802 801 801 800 800 799 799 798 798 797 797 796 795 795 794 794 793 793
769 770 772 773 774 776 777 778 779 780 782 783 784 785 787 788 789 790 791 792 793 794 795 796 796 797 798 798 799 799 800 800 801 801 801 801 802 802 802 802 802 802 802 802 802 802 802 802 801 801 800 800 799 799 799 798 797 797 796 796 795 795 794 793 793 792 792 791 790
769 769 770 772 773 774 775 777 778 779 780 782 783 784 786 787 788 789 790 791 792 793 794 794 795 796 797 797 798 798 799 799 799 800 800 800 800 800 800 800 800 800 800 800 801 801 800 800 800 799 799 799 798 798 797 796 795 795 794 794 794 793 792 791 790 790 789 789 788
767 768 769 770 772 773 774 775 777 778 779 781 782 784 785 786 787 788 789 790 791 792 793 794 794 795 796 796 797 797 798 798 798 799 799 799 799 799 799 799 799 799 799 799 799 799 799 799 798 798 798 797 797 796 795 795 794 793 793 792 791 791 790 789 788 788 787 787 786
766 767 768 769 771 772 773 775 776 778 779 780 781 783 784 785 786 787 788 789 790 791 792 793 793 794 794 795 795 796 796 797 797 797 797 798 798 798 798 798 797 797 797 797 797 797 797 797 797 796 796 796 795 794 794 793 793 792 791 790 789 789 788 787 786 785 785 784 784
765 766 768 769 770 771 773 774 775 777 778 779 780 782 783 784 785 786 787 788 789 790 791 791 792 793 794 794 794 795 795 795 796 796 796 796 796 796 796 796 796 795 795 795 795 795 795 795 795 794 794 794 794 793 792 791 791 790 789 789 788 787 786 785 784 783 783 782 782
764 766 767 768 769 771 772 773 774 776 777 778 779 781 782 783 784 785 786 787 788 789 789 790 791 792 792 793 793 794 794 794 794 794 795 795 795 795 794 794 794 794 794 794 794 794 793 793 793 792 792 792 791 791 790 789 789 788 787 786 785 784 784 783 782 781 780 780 779
764 765 766 768 769 770 771 773 774 775 776 777 779 779 781 782 783 784 785 786 787 788 789 789 790 791 791 792 792 793 793 793 793 793 793 793 793 793 793 793 793 792 792 792 792 792 791 791 790 790 790 789 789 789 788 787 786 785 785 784 783 782 781 780 780 779 778 778 777
764 765 766 767 769 770 771 772 774 774 775 776 777 779 780 781 782 783 784 785 786 787 788 789 789 790 790 791 791 791 792 792 792 792 792 792 792 791 791 791 791 790 790 790 790 789 789 789 789 788 788 787 787 786 785 784 784 783 782 781 780 779 779 778 777 776 776 775 775
763 764 765 767 768 769 771 772 773 774 774 776 777 778 779 780 781 783 784 784 785 786 787 788 789 789 789 790 790 790 790 790 790 790 790 790 790 790 789 789 789 788 788 788 788 787 787 786 786 786 785 785 784 784 783 782 781 780 779 778 777 776 776 775 774 774 773 773 772
763 764 765 766 768 769 770 771 772 773 774 775 776 777 778 779 781 782 783 784 785 785 786 787 788 788 788 789 789 789 789 789 789 789 789 789 789 788 788 787 786 786 786 785 785 785 784 784 784 783 783 783 782 781 780 780 779 778 776 775 774 774 773 772 771 771 770 770 769
763 764 765 766 768 769 770 770 771 772 774 774 775 777 778 779 780 781 782 783 784 785 785 786 787 787 787 787 787 788 787 787 787 787 787 787 787 786 785 784 784 784 784 783 783 783 782 782 781 781 781 780 780 779 778 777 776 775 774 773 772 771 770 769 768 768 767 767 766
762 764 765 766 767 768 769 770 771 772 773 774 775 776 777 778 779 780 782 783 784 784 785 785 785 786 786 786 786 786 786 786 786 785 785 785 784 784 783 782 782 781 781 781 781 780 780 779 779 779 779 778 777 776 775 774 773 772 771 770 769 768 767 766 766 765 764 764 763
762 763 764 766 767 768 768 769 770 771 772 773 774 775 777 778 779 780 781 782 783 783 784 784 784 784 784 784 784 784 784 784 784 784 783 783 783 782 781 780 780 779 779 779 779 778 778 777 777 776 776 776 775 774 773 772 770 769 768 767 766 765 764 764 763 762 761 761 760
762 763 764 765 766 767 768 769 770 771 772 773 774 775 776 778 779 779 780 781 782 782 783 783 783 783 783 783 783 783 783 782 782 782 781 781 780 780 779 779 778 777 777 776 776 775 775 775 774 774 774 774 773 771 770 769 768 767 765 764 763 762 761 761 760 759 759 758 757
762 763 764 765 766 767 767 768 769 770 771 773 774 775 776 777 778 779 779 780 781 781 782 782 782 782 782 782 781 781 781 780 780 779 779 779 778 778 777 776 775 775 774 774 774 773 773 772 772 771 771 771 770 769 768 767 765 764 763 762 760 759 759 758 758 757 756 754 754
761 763 764 765 766 766 767 768 769 770 771 773 774 775 776 777 778 779 779 780 780 780 780 780 780 780 780 780 780 779 779 778 778 778 777 776 776 775 775 774 773 772 772 771 771 770 770 769 769 769 769 768 768 767 766 764 763 761 760 759 758 757 756 755 755 754 753 752 751
761 763 764 765 766 766 767 769 769 770 771 773 774 775 776 776 777 778 779 779 779 779 779 779 779 779 779 779 778 778 777 776 776 775 775 774 774 773 773 772 771 770 769 769 769 768 767 767 767 766 766 766 765 764 763 762 761 759 757 756 756 755 754 753 752 752 751 750 749
Wind_Speed
26 28 29 30 30 29 29 28 28 28 28 29 29 30 30 30 29 29 29 29 28 26 25 24 23 21 19 17 15 14 13 12 11 11 11 11 11 11 11 11 11 11 11 11 11 11 10 10 10 10 10 9 9 9 9 9 8 8 8 8 8 8 8 8 9 9 9 9 9
27 28 30 30 31 30 30 29 28 28 28 29 30 31 31 31 30 30 30 29 28 27 25 24 22 20 18 17 15 14 12 12 11 11 11 11 11 11 11 11 11 11 11 11 10 10 10 9 9 9 10 10 9 8 8 9 9 9 9 8 8 8 8 9 9 9 9 9 9
28 28 29 30 30 30 29 29 28 28 28 29 30 31 31 31 31 31 30 29 28 26 24 23 21 20 18 17 15 14 13 12 11 11 11 11 11 11 11 11 11 11 10 10 10 9 9 9 9 9 10 10 9 8 8 9 9 10 9 9 8 9 9 10 10 9 9 9 9
28 29 29 30 30 30 29 28 28 28 28 29 30 31 31 31 31 31 30 28 27 25 24 22 21 20 18 17 15 14 13 12 11 11 11 11 10 10 10 10 10 10 10 10 9 9 9 9 9 9 9 9 8 8 8 9 9 10 10 9 10 10 10 10 10 9 9 10 10
29 30 30 30 30 29 28 27 27 27 28 29 30 31 31 31 30 30 29 27 26 25 23 22 21 20 18 16 15 13 13 12 12 11 11 10 10 10 10 10 10 10 9 9 9 9 8 9 9 9 9 9 9 9 9 9 9 10 10 11 11 11 11 11 10 10 10 10 10
30 30 30 30 29 27 26 26 26 27 28 30 30 31 31 31 30 29 28 27 25 24 23 22 21 20 18 16 15 13 13 12 12 11 11 10 10 10 10 10 9 9 9 9 9 8 8 9 9 9 10 10 10 10 10 10 10 11 11 11 11 11 12 11 11 11 11 11 11
31 31 30 29 28 26 25 25 26 26 28 29 30 31 31 31 30 28 27 26 25 24 23 22 21 19 17 16 14 14 13 12 12 11 10 10 10 10 9 9 9 9 8 8 8 8 8 9 9 10 10 11 11 11 11 11 12 12 11 11 10 11 11 12 12 12 12 12 12
31 31 30 29 27 26 25 25 25 26 27 29 30 31 31 30 29 28 27 26 25 25 24 22 20 19 17 15 14 14 13 12 11 11 10 10 10 9 9 9 8 8 8 8 8 8 8 9 9 10 10 11 11 11 11 12 13 13 12 12 11 11 12 13 13 13 13 13 13
30 31 30 29 27 26 26 26 26 26 27 29 30 31 30 29 28 27 27 26 26 25 23 22 20 18 16 15 14 14 13 12 11 11 10 10 9 9 8 8 8 8 8 8 8 8 9 9 10 10 11 11 11 11 12 13 13 14 14 13 12 12 12 13 13 13 13 13 14
30 30 30 29 28 27 26 26 26 27 28 29 30 30 30 29 28 27 27 26 25 24 23 21 19 18 16 15 14 14 13 12 11 11 10 10 9 9 8 8 8 8 8 8 8 9 9 10 10 11 11 12 12 12 12 14 14 14 14 14 13 13 13 13 13 13 13 14 15
31 31 30 29 28 27 26 26 27 28 29 30 31 30 30 29 29 28 27 26 25 23 22 20 19 17 16 16 15 14 13 12 11 11 10 9 9 8 8 8 7 8 8 8 9 9 10 10 11 11 12 12 12 13 13 14 14 15 15 15 15 15 15 14 14 14 14 15 16
31 31 30 29 28 28 27 27 28 29 30 31 31 31 30 29 29 28 27 26 24 23 21 20 18 17 17 16 15 14 13 12 11 10 10 9 9 8 8 8 8 8 8 9 9 10 10 11 11 11 12 12 12 13 13 14 15 15 15 16 16 16 16 16 16 16 16 16 16
31 30 30 29 29 28 28 29 30 31 31 32 31 31 30 30 29 28 26 25 23 22 21 19 18 17 17 16 15 14 13 12 11 10 10 9 9 8 8 8 8 8 9 9 10 10 11 11 12 12 12 12 12 13 13 14 15 15 16 16 17 17 17 18 17 17 17 16 16
30 30 30 30 29 29 29 30 31 32 32 32 31 31 30 29 28 27 25 24 23 22 21 20 19 18 17 16 15 14 13 12 11 10 10 9 9 8 8 8 8 9 9 10 10 11 11 12 12 12 13 13 13 13 14 14 15 16 17 17 18 18 19 18 18 17 17 16 16
30 30 30 30 29 30 30 32 32 32 32 32 31 31 30 29 28 26 25 24 23 22 21 20 19 18 17 16 15 14 13 12 11 10 10 9 9 8 8 9 9 9 10 10 11 11 12 12 13 13 13 14 14 14 15 15 16 17 18 18 19 19 19 19 19 18 18 18 17
30 30 30 30 30 31 32 33 33 32 32 32 32 31 30 29 28 26 25 24 23 22 21 20 19 18 17 16 15 14 13 12 11 10 10 9 9 9 9 9 9 9 10 10 11 12 12 13 13 14 14 15 15 16 16 17 17 18 19 19 20 20 20 20 20 19 19 19 18
30 30 30 30 31 32 33 34 33 33 33 32 32 31 30 29 27 26 25 24 23 22 21 21 20 18 17 16 15 14 13 12 11 11 10 9 9 9 9 9 9 10 10 11 11 12 13 13 14 14 15 15 16 17 17 18 19 19 20 20 20 21 21 20 20 20 20 19 19
29 30 30 31 32 33 34 35 34 33 33 33 32 31 30 28 27 26 25 25 24 23 22 21 20 19 17 16 15 14 13 12 11 11 10 9 9 9 9 9 9 10 10 11 12 12 13 14 14 15 15 16 17 18 18 19 19 20 21 21 21 21 21 21 21 20 20 20 20
29 30 30 31 33 34 35 35 35 34 34 33 32 31 29 28 27 26 26 25 24 23 22 21 20 19 17 16 15 14 13 12 11 11 10 9 9 9 9 9 9 10 10 11 12 12 13 14 15 15 16 17 18 18 19 20 20 21 21 22 22 22 22 22 21 21 20 20 21
29 30 31 32 34 35 35 35 35 34 34 33 32 31 29 28 27 26 26 25 24 23 22 21 20 18 17 16 15 14 13 12 11 11 10 10 9 9 9 9 9 10 10 11 12 12 13 14 15 16 17 18 19 19 20 21 21 22 22 23 23 23 23 22 22 21 21 21 21
29 30 32 33 34 35 35 35 35 34 34 33 32 30 29 28 27 27 26 25 24 23 22 21 19 18 17 16 15 14 13 12 11 11 10 10 9 9 9 9 9 10 10 11 11 12 13 14 15 16 17 18 19 20 21 21 22 23 23 23 23 23 23 23 22 22 22 22 21
30 31 33 34 35 35 35 35 35 34 34 33 32 30 29 28 27 27 26 25 24 23 22 20 19 18 17 16 15 14 13 12 11 11 10 9 9 9 9 9 10 10 10 11 11 12 13 14 15 16 17 19 20 21 21 22 23 23 23 24 23 23 23 22 22 21 21 21 21
30 31 32 33 34 35 35 35 35 34 33 33 31 30 29 28 28 27 26 25 24 23 22 20 19 18 17 16 15 14 13 12 12 11 10 9 9 9 9 10 10 11 11 11 11 12 13 14 15 16 17 19 20 21 22 23 23 24 24 24 24 23 23 22 21 21 21 21 21
29 30 32 33 34 34 34 35 35 34 33 33 31 30 29 28 28 27 26 25 24 22 21 20 19 18 17 16 15 14 13 12 12 11 10 9 9 9 10 10 11 12 12 12 12 13 13 14 16 17 18 19 20 21 22 23 24 24 24 24 24 24 23 22 22 21 21 21 21
28 30 31 32 33 33 34 34 34 34 33 32 31 30 29 28 28 27 26 25 23 22 21 20 19 18 17 16 15 14 13 13 12 11 10 10 10 10 11 11 12 13 13 13 13 13 14 15 16 17 18 19 20 21 21 22 23 23 24 24 24 23 22 22 22 21 21 21 21
27 29 30 32 33 33 33 34 34 34 33 32 31 30 29 28 28 27 25 24 23 22 21 20 19 18 17 16 15 14 14 13 12 11 11 11 11 11 12 13 14 14 14 14 14 14 15 16 17 18 18 17 17 18 19 21 22 23 23 23 23 22 22 21 22 21 21 20 21
26 28 30 31 32 32 33 34 34 33 32 31 30 29 28 28 27 26 25 24 23 22 21 20 19 18 17 16 15 15 14 13 12 12 11 12 12 13 14 15 16 16 16 16 16 16 16 17 18 18 18 18 17 18 19 20 21 22 23 23 23 23 22 22 22 22 21 21 21
26 27 28 30 31 31 32 32 32 31 31 30 30 29 28 28 27 26 25 24 23 22 20 20 19 18 17 16 16 15 14 14 13 12 12 13 13 14 15 16 17 18 18 18 18 18 18 18 19 19 19 19 18 19 19 20 20 20 20 21 21 21 22 22 21 21 21 21 21
25 26 27 28 29 30 30 30 30 30 30 30 29 29 28 28 27 26 25 24 23 22 21 20 19 18 17 17 16 15 15 14 14 14 14 14 15 16 17 18 19 19 20 20 20 20 20 20 20 20 20 20 19 19 19 19 19 19 19 19 19 20 20 21 21 21 21 21 21
24 24 25 27 28 28 28 28 28 28 28 28 29 29 28 28 27 26 25 24 23 22 21 20 19 18 17 17 16 15 15 15 14 15 15 16 17 18 19 19 20 21 22 22 22 22 22 22 22 22 21 21 20 20 20 20 20 20 20 20 20 21 21 21 22 22 21 21 21
23 23 24 25 26 26 26 27 27 27 27 28 29 29 28 27 27 26 25 24 22 21 20 19 18 18 17 17 16 16 16 15 15 16 17 18 19 19 20 21 22 23 23 24 24 24 24 23 23 23 23 23 22 21 21 21 21 21 21 21 22 22 22 22 23 23 23 22 22
21 22 23 24 24 24 24 25 24 25 26 28 29 29 28 27 26 25 24 23 22 21 20 19 18 18 17 17 16 16 16 16 17 17 18 19 20 21 22 23 24 25 25 26 26 25 25 25 25 24 24 23 22 22 22 22 22 23 23 23 24 24 24 24 24 24 24 23 23
20 21 21 22 22 22 22 23 23 24 26 27 28 28 27 26 26 25 23 22 21 20 19 19 18 18 17 17 17 17 17 17 18 19 20 21 22 23 23 24 25 26 27 27 27 27 27 26 26 25 25 24 23 22 22 23 23 23 23 23 24 24 25 25 26 25 25 25 24
19 20 20 21 21 21 21 22 23 24 26 26 27 27 26 25 24 23 23 22 20 19 19 18 18 18 17 17 17 18 18 19 20 21 21 22 23 24 24 25 26 27 28 28 28 28 27 27 27 26 25 24 23 22 22 23 23 23 24 24 24 25 25 26 27 27 26 26 25
19 19 19 20 20 20 20 21 23 24 25 25 25 25 25 24 23 23 22 21 19 19 18 18 18 17 17 18 18 19 20 21 22 22 22 23 23 24 25 26 27 28 28 28 28 28 28 28 27 26 25 24 23 23 23 23 23 24 24 25 25 25 26 27 27 27 27 27 26
19 18 19 19 19 19 20 22 23 24 24 24 24 25 24 23 22 21 20 19 19 19 18 18 18 18 18 19 19 20 21 22 23 23 23 23 23 23 24 26 27 28 28 29 29 29 29 28 28 27 26 24 23 22 22 22 22 23 24 25 25 26 26 26 27 27 27 27 27
18 18 18 18 18 19 20 22 23 24 24 24 24 24 23 22 21 20 20 19 18 18 18 18 18 19 19 20 21 21 22 22 23 23 23 23 23 23 24 24 25 27 28 28 29 29 29 29 28 27 25 24 23 22 22 21 22 22 23 23 24 25 25 25 25 26 26 27 27
17 17 18 18 18 19 20 22 24 24 24 24 23 23 22 21 20 20 19 19 18 17 17 17 18 19 19 20 21 21 22 22 22 23 23 24 24 24 23 24 25 26 27 28 28 28 28 28 28 27 26 24 23 22 21 21 22 22 22 23 23 24 24 23 23 23 24 26 27
16 17 17 17 18 19 20 22 24 24 23 23 22 21 20 20 19 19 18 18 17 16 16 17 17 18 19 19 19 20 21 22 23 23 24 24 24 24 24 24 25 26 27 28 28 28 28 28 28 27 26 25 23 23 22 22 23 23 24 24 24 24 24 24 23 22 23 24 26
16 16 16 17 17 19 20 22 23 23 23 21 20 19 19 19 18 17 16 15 15 15 16 16 17 18 18 18 18 19 20 22 22 23 23 24 24 25 25 25 26 27 27 28 28 28 28 28 28 28 27 25 23 22 22 22 23 24 24 24 24 24 24 24 23 22 22 23 23
15 16 16 16 16 18 20 21 21 22 21 20 19 18 17 17 16 15 14 13 13 14 15 16 17 17 18 18 18 19 20 21 22 23 23 23 24 24 24 24 25 26 27 28 28 28 28 28 29 28 27 26 23 22 21 22 23 24 24 24 24 24 24 24 23 23 22 22 22
Wind_Direction
200 202 203 204 204 204 204 204 206 207 208 207 204 203 202 199 197 197 197 197 198 199 202 206 209 211 212 212 213 216 222 229 235 241 246 251 256 262 269 275 280 284 287 290 292 293 293 292 290 289 288 285 280 276 274 275 275 276 275 273 274 274 276 277 277 276 274 272 271
201 203 204 206 207 207 207 208 208 209 210 210 208 206 203 200 198 198 198 198 200 203 206 208 210 210 209 209 211 215 221 227 233 238 243 249 255 262 268 274 279 283 286 288 289 289 288 288 285 283 282 282 279 273 270 272 275 275 275 273 272 274 276 278 278 277 276 274 272
202 204 205 207 208 209 209 209 210 211 211 210 209 206 203 200 199 199 199 200 202 205 208 209 208 208 207 208 211 215 220 225 230 236 241 247 254 261 268 273 278 282 284 286 287 286 285 284 281 278 277 278 276 270 265 269 275 276 275 272 271 274 277 280 280 279 277 275 274
204 205 207 209 210 211 212 213 213 213 213 211 208 205 201 199 199 199 200 202 203 206 207 207 206 205 206 208 210 214 218 223 228 234 241 248 254 261 267 272 277 280 282 285 285 285 284 281 278 276 274 272 269 264 261 266 273 276 276 274 273 274 277 279 280 278 276 277 276
206 208 209 211 213 215 216 218 217 216 214 212 207 202 198 197 197 199 200 201 203 204 205 205 204 205 205 207 209 213 216 221 226 232 240 247 254 260 266 271 274 277 281 284 284 284 282 280 276 275 272 267 264 262 262 267 271 273 274 277 278 278 279 279 278 277 277 278 277
208 210 211 213 215 217 219 220 219 217 214 211 205 200 197 196 197 198 200 201 202 203 203 203 204 204 205 206 208 211 215 220 225 232 239 247 254 259 265 269 272 276 279 282 283 283 281 278 274 272 271 268 267 268 268 270 271 273 274 276 278 280 280 278 278 277 278 278 277
211 212 213 215 217 219 220 220 218 215 212 208 203 198 197 197 197 199 200 201 201 201 201 202 203 204 204 205 206 210 215 220 226 232 239 246 253 258 263 267 272 275 277 280 281 280 278 275 270 269 269 269 269 269 270 272 273 274 275 275 274 276 278 277 277 278 278 278 276
213 214 215 216 218 220 220 219 215 211 207 204 200 198 198 198 198 199 200 201 200 200 200 201 202 202 203 204 206 210 215 221 227 233 239 245 252 257 261 266 270 272 275 278 277 275 273 272 269 266 264 266 267 268 269 273 275 276 276 275 273 273 276 278 279 280 280 279 277
213 214 216 217 219 220 220 218 214 208 203 200 198 198 198 199 199 199 199 199 200 201 201 201 201 201 202 204 207 211 216 221 228 234 239 244 250 256 260 264 268 270 272 275 274 271 269 269 268 265 264 266 267 268 269 272 276 277 277 276 273 272 274 277 279 279 279 279 277
213 214 215 216 218 219 218 216 212 207 202 198 197 197 199 200 200 199 200 200 201 201 201 200 199 199 201 203 207 211 216 222 227 233 239 244 249 254 259 262 265 267 268 270 270 269 267 267 266 265 266 268 268 268 269 273 275 277 276 275 274 274 274 275 276 276 276 277 278
214 214 215 216 216 217 215 211 207 203 199 197 196 197 199 199 199 200 201 201 200 200 199 199 198 198 200 204 208 212 216 221 227 233 238 244 248 253 256 260 262 263 263 265 266 266 265 265 266 267 267 269 269 269 270 273 275 276 275 275 276 277 277 277 275 274 275 277 278
214 215 215 216 216 215 212 207 202 198 196 196 197 198 199 199 199 200 201 201 200 199 199 198 198 198 201 204 208 212 216 221 226 231 237 242 246 250 255 258 260 260 261 263 265 265 265 266 267 267 267 267 268 268 270 272 274 274 275 275 276 277 277 278 278 277 277 278 278
214 215 215 215 215 213 209 204 200 196 195 196 197 198 198 198 199 200 200 200 199 199 198 197 197 199 202 205 208 212 216 220 225 230 235 240 244 249 253 257 259 260 260 263 266 267 268 268 269 269 268 266 265 266 268 270 271 272 273 275 275 276 277 279 280 280 279 278 276
214 214 215 214 213 211 206 201 197 196 195 196 198 198 198 198 199 199 199 199 198 198 197 196 197 199 202 205 209 212 216 219 224 229 234 239 243 248 253 256 259 260 261 264 267 269 269 270 271 271 270 268 266 266 267 268 270 272 273 274 275 276 278 279 280 280 278 276 273
213 214 214 213 211 207 203 198 196 196 196 197 198 198 198 198 198 198 198 197 198 197 197 196 197 199 202 205 208 212 216 219 224 228 232 237 242 247 252 255 259 261 262 265 268 270 271 272 272 273 272 270 269 268 268 269 271 273 274 275 276 277 278 279 280 279 277 275 273
212 213 212 211 208 204 200 196 195 196 196 197 198 198 198 198 197 197 197 196 197 197 196 197 198 200 203 205 208 212 216 220 224 227 231 235 240 245 250 254 258 261 263 266 268 271 273 274 274 273 273 272 271 271 271 271 272 274 275 276 276 277 278 279 279 278 277 276 274
211 211 210 208 205 201 198 196 196 196 197 197 198 198 198 198 198 197 197 196 196 196 197 198 200 202 204 206 208 212 216 220 223 227 230 234 239 244 249 254 258 262 265 267 269 271 273 275 275 275 274 274 274 274 274 274 274 274 275 276 276 277 278 279 279 278 277 275 273
208 209 208 206 203 200 197 196 196 197 197 198 199 199 199 199 199 198 197 197 197 197 197 199 201 203 205 208 210 212 216 220 223 227 230 235 239 244 249 254 259 263 266 268 270 272 274 276 277 276 276 276 276 276 276 275 275 275 275 276 276 277 278 279 279 277 276 274 273
207 207 206 204 202 199 197 197 197 198 199 200 200 200 200 201 200 198 197 197 197 198 199 200 202 204 206 210 212 214 217 220 223 227 231 235 239 244 249 255 260 264 267 269 272 274 276 277 278 278 277 277 277 277 276 276 275 275 275 275 276 277 278 278 278 276 274 273 272
206 206 205 204 201 199 198 198 199 200 201 201 202 201 201 201 201 199 198 197 198 199 200 202 203 205 207 210 213 215 218 220 224 227 230 234 239 243 249 255 260 265 268 271 274 276 278 279 278 278 278 278 277 277 276 275 275 274 275 275 276 277 278 278 277 276 274 273 272
207 206 206 204 201 199 199 200 201 201 202 203 203 203 203 202 200 199 198 199 199 200 202 203 205 206 208 211 213 216 219 221 223 226 229 234 238 244 250 256 262 267 270 273 276 278 280 280 279 278 278 277 277 276 275 275 274 275 275 276 277 278 278 278 278 277 275 274 272
207 207 206 204 202 201 200 201 201 202 203 203 204 204 203 202 200 199 199 199 200 201 203 205 207 209 210 212 215 217 219 221 223 226 229 234 239 246 253 259 264 268 272 275 279 281 283 283 282 280 279 277 277 276 275 274 274 274 274 275 276 277 277 277 276 275 274 273 271
208 207 206 204 202 201 201 201 201 202 203 203 204 203 203 201 200 199 199 200 201 202 204 206 208 210 212 214 216 218 219 221 223 226 230 234 240 247 254 260 265 269 273 277 282 284 285 285 284 282 281 279 277 276 274 273 272 273 273 274 275 275 275 274 273 271 271 271 270
207 206 205 203 201 200 200 201 201 202 202 203 203 203 202 200 199 199 200 201 202 203 205 207 209 211 212 214 216 218 220 221 224 226 230 236 243 249 256 262 267 272 276 280 284 286 287 287 286 285 283 281 278 276 275 273 273 273 274 274 275 275 274 274 272 271 270 270 269
206 205 204 202 200 200 200 201 201 201 202 202 202 202 200 199 199 199 200 201 203 204 206 208 210 211 213 214 216 218 220 223 225 229 233 239 246 253 258 264 269 274 278 282 286 287 288 288 288 287 285 282 281 278 277 277 276 276 276 276 275 275 274 273 273 271 270 269 269
206 204 203 202 200 200 200 200 201 201 201 202 201 200 199 199 199 200 201 202 204 205 207 209 210 212 213 215 217 219 222 224 228 232 238 244 250 256 261 265 270 275 280 284 286 287 287 287 287 286 282 278 275 274 274 276 277 278 278 276 275 273 272 272 271 270 269 268 267
205 204 203 202 200 200 200 200 200 200 200 200 199 199 198 199 199 200 202 203 205 206 208 209 211 212 214 216 218 221 223 227 231 237 242 248 253 258 263 267 272 277 282 285 287 287 287 286 285 283 279 273 269 267 268 269 272 274 275 274 273 271 270 269 269 270 269 268 268
204 203 203 202 200 200 200 200 199 198 198 199 198 198 198 199 200 201 203 205 206 207 208 209 211 213 215 218 220 223 227 231 236 241 247 253 257 261 265 269 273 279 283 287 287 287 286 285 284 282 278 273 268 266 266 267 269 270 270 269 269 267 266 266 267 267 268 268 268
204 203 202 201 200 200 199 198 197 197 197 198 198 198 199 200 201 203 204 206 207 208 208 209 211 214 216 219 223 227 231 235 241 246 252 256 260 263 267 270 275 279 283 285 286 286 285 284 284 282 279 274 268 266 265 266 267 268 267 266 265 264 263 263 264 265 265 267 268
204 203 202 201 201 200 199 198 197 196 196 196 197 198 199 201 202 204 206 208 209 209 210 211 213 215 219 223 227 231 236 241 246 251 255 260 263 267 270 273 276 279 282 284 284 284 283 283 282 281 278 275 270 266 264 265 266 268 268 267 265 264 263 263 263 263 264 265 266
204 203 202 201 200 199 198 197 196 195 195 195 196 198 200 201 203 205 207 209 210 211 212 214 216 219 223 228 232 237 242 247 252 256 260 264 267 270 273 276 278 279 281 282 282 282 282 282 281 280 279 276 271 268 266 265 266 267 267 266 265 264 263 263 263 263 263 263 264
204 203 202 201 199 198 197 195 194 193 194 195 197 198 200 202 204 206 208 209 211 212 214 216 219 223 228 233 238 243 248 254 258 262 265 268 272 274 276 277 278 279 280 281 282 282 281 281 280 280 278 275 272 267 266 267 266 266 266 265 264 263 262 262 263 263 263 263 263
204 203 202 200 198 197 195 193 193 193 194 195 197 199 200 202 205 207 209 210 212 213 216 219 223 227 232 237 243 249 254 259 263 267 270 272 274 276 277 277 277 279 280 281 282 282 282 281 281 280 279 276 272 269 267 267 267 266 265 265 263 262 261 260 261 261 262 262 262
204 202 201 199 197 195 194 192 192 193 194 195 197 199 201 203 205 208 210 212 214 216 219 223 228 233 238 243 248 254 259 264 268 270 273 274 275 276 276 276 277 278 280 281 282 282 282 281 281 280 278 276 272 269 267 267 268 267 265 265 264 263 261 261 260 261 261 262 262
204 201 199 198 196 194 192 192 192 193 193 195 197 199 202 204 207 209 211 214 217 220 224 229 234 239 244 249 254 259 263 267 270 273 274 275 275 275 275 275 277 279 281 282 283 283 282 281 280 279 278 275 271 269 268 267 267 267 266 265 265 264 263 262 262 262 262 262 261
204 201 198 196 195 193 192 192 192 193 194 195 197 200 203 205 208 211 214 217 220 224 229 234 239 244 250 255 260 264 267 270 273 274 275 275 274 274 274 275 277 280 282 283 283 284 283 282 281 280 278 275 272 269 268 267 267 267 266 266 266 265 264 263 263 262 262 262 261
205 201 198 196 194 193 192 192 193 193 194 196 199 202 204 207 210 214 218 221 224 229 234 240 246 251 257 262 266 269 271 273 274 275 275 275 274 274 274 275 277 279 281 283 284 284 284 283 282 281 278 275 272 270 270 269 269 268 268 267 267 266 266 265 264 263 262 262 261
204 201 198 196 194 192 192 193 194 194 196 198 201 204 206 209 213 218 222 225 229 235 242 249 255 260 265 269 272 274 275 275 275 276 276 276 275 275 275 275 277 279 281 282 283 283 283 283 283 281 278 275 272 271 271 271 271 271 270 269 269 268 267 266 265 264 263 262 262
203 200 198 196 194 193 193 194 196 196 198 200 202 205 209 212 217 222 227 232 238 245 252 259 264 269 272 274 275 276 277 277 277 277 277 277 277 277 277 277 278 279 281 282 282 282 283 283 283 281 278 275 272 272 273 273 273 273 273 272 271 271 270 269 268 266 265 263 262
201 198 196 196 195 194 195 196 197 199 200 201 204 208 212 216 221 228 235 243 250 258 264 268 272 274 275 276 276 277 278 278 278 278 278 279 280 280 280 279 279 280 282 282 282 282 282 282 282 281 278 275 272 272 273 274 274 274 274 273 273 273 273 273 271 268 267 266 264
199 197 195 196 196 197 197 198 199 201 202 204 206 211 216 222 229 237 247 256 263 269 272 275 277 278 278 278 278 278 278 278 279 279 279 280 281 281 280 279 279 280 282 282 282 282 282 282 282 280 278 276 273 272 272 273 274 274 273 273 273 274 275 275 274 271 268 267 266